Flight Information

DEPARTURE
NORTH BEND, OR
Elevation:
17
Runways:
13/31 - 4470x150 - ASPH-G
5/23 - 5980x150 - ASPH-G
Ground:
127.1
Tower:
NORTH BEND TOWER 118.45
DESTINATION
,
Elevation:
TPA:
1000 (est.)


6847.4 NM65° True-18° Var46° HDG

Flight Plan:
(click to file on line)

1. Type
2. Aircraft Identification
3. Aircraft Type / Special Equipment
4. True Airspeed
kts
5. Departure Airport
(ICAO code)
6. Arriving Airport
(ICAO code)
7. Cruising Altitude
ft
8. Alternate Airport
(ICAO code)
9. Route of Flight
10. Remarks


00:00:00 Departure ATIS: Destination ATIS:

Clearance Limit:
Route:
Altitude: Expect in minutes
Frequency:
Transponder: (7500 Hijack / 7600 Lost Comms / 7700 Emergency)


KOTH 100609Z AUTO 17017G24KT 10SM FEW024 BKN030 OVC060 09/08 A2948 RMK AO2 PK WND 17027/0557 RAB0557E09 P0000
Time: 2022-12-10T06:09:00Z
1670654220
Winds: 170 @ 17 kts
Gusting:24 kts
Visibility: 10.0 sm
Clouds (AGL): FEW 2400
BKN 3000
OVC 6000
Temperature: 9.0 C
Dew Point: 8.0 C
Pressure: 29.480314 in Hgbr


Notes:

Data extracted from FAA Digital Chart Supplement. Effective: 0901Z Thursday, 27 JAN 2022 to 0900z Thursday, 24 MAR 2022
Current ATIS data is provided courtisy of PilotEdge.